Starlink 5156

operational
NORAD ID: 53973 Int'l Des: 2022-125 Owner: SPXS Country: US Constellation: starlink
LEOCIRCULAR

Starlink 5156について

説明を読み込み中...

リアルタイム位置

3D地球を読み込み中...

次回通過

高度履歴

Altitude vs Time

uPlot chart will show altitude changes over time

軌道要素

1 53973U 22125K 25303.65918995 .00000431 00000-0 45176-4 0 9999
2 53973 53.2180 87.7289 0001225 88.6507 271.4625 15.08838428169698
Epoch: Oct 30, 2025 • Age: 13 hours

現在のステータス

高度 544.6 km
速度 7.60 km/s
衛星直下点 49.21°N, 32.29°E
打ち上げ日 Oct 5, 2022
運用期間 3 years
タイプ internet

技術仕様

分類 Payload
質量 305.00 kg
乾燥質量 290.00 kg
総質量 305.00 kg
長さ 0.20 m
直径 2.80 m
スパン 9.00 m
形状 Box + pan
製造者 SPXS
バスタイプ Starlink
フェーズステータス In Orbit
所有者/国 SPXS/US

大規模コンステレーション

Loading constellations...